STARLINK-2019 (47641 NORAD) Tracking and Keplerian Element Data

This shows tracking and keplerian element data for the satellite.

Feedback or suggestion? Click here.




ElementValue
Catalog47641
NameSTARLINK-2019
Epoch Orbit944
Epoch Day102.16668981
Epoch Year2021
RAAN187.6737
Inclination53.0469
Eccentricity0.0001517
Argument of Perigee33.3769
Mean Anonmoly19.2633
Mean Motion15.7319121
Decay Rate0.00041149
L11 47641U 21012X 21102.16668981 .00041149 00000-0 29623-3 0 9993
L22 47641 53.0469 187.6737 0001517 33.3769 19.2633 15.73191210 9446

Live tracking and technical data element details for STARLINK-2019 (NORAD 47641). STARLINK-2019 can be tracked NOW for your location showing map with azimuth and elevation plus other details from your city location.

Track the satellite on the map from your city or location and see movement details for azimuth, elevation, latitude, longitude, range, height, and movement on the map or in text.







IsCatalogInMostPopularTable: catalog: 47641, numindb: 19
Update: records affected: 1



GetName: 47641 STARLINK-2019

Hit Count: updated at: Tue, 13 Apr 2021 04:45:29 GMT